Theta_e
341 345 342 339 332 329 324 320 318 316 316 316 316 316 315 316 317 317 318 315 314 315 315 315 315 317 314 314 313 313 312 310 305 307 310 314 316 314 314 316 315 313 312
335 331 325 322 320 318 316 316 316 315 315 314 314 313 314 313 317 315 313 313 312 311 312 314 313 313 314 316 312 312 309 310 305 303 309 308 312 313 315 315 312 311 311
321 317 316 315 314 313 313 311 311 311 311 311 312 311 310 311 311 311 311 311 311 312 312 312 312 312 311 311 310 308 307 307 307 304 304 307 309 311 312 312 312 311 309
316 314 313 312 311 312 312 311 311 313 311 311 311 311 311 308 306 307 309 311 311 312 312 312 311 311 308 307 306 307 307 304 304 303 304 305 307 311 310 306 304 305 303
314 312 310 312 313 311 313 314 313 314 315 311 310 309 307 302 298 297 300 304 309 310 311 311 311 308 303 304 304 304 302 301 301 302 302 303 303 303 301 302 299 299 301
310 309 309 309 311 310 311 314 312 312 311 312 310 308 305 299 295 296 298 302 309 309 308 309 309 310 306 305 304 303 302 300 300 299 300 299 301 301 301 298 295 294 294
311 309 308 307 307 307 307 307 307 307 310 310 308 306 302 299 294 294 295 303 308 306 307 305 304 304 302 301 300 301 303 304 304 301 299 300 300 300 299 295 293 293 294
311 310 308 307 306 307 307 305 307 308 308 307 307 307 303 297 294 294 295 305 307 306 305 304 303 302 299 295 298 301 302 304 305 302 303 303 303 302 297 294 293 294 297
308 308 309 312 311 310 308 306 308 307 305 306 305 305 301 297 293 293 296 307 306 306 305 304 302 301 293 293 297 299 299 302 302 301 301 299 297 295 295 294 292 291 290
309 310 310 309 307 305 304 301 305 306 305 305 304 303 300 300 292 293 295 302 302 304 306 302 294 295 293 292 296 297 296 297 299 300 301 298 296 295 295 295 293 289 289
307 305 305 304 301 300 300 303 305 306 305 304 304 304 303 300 297 293 293 299 297 301 302 302 301 294 293 292 292 296 293 294 296 295 294 294 292 292 293 293 293 292 289
301 302 302 303 301 302 304 305 306 306 305 304 304 304 303 303 295 294 293 293 295 298 300 301 299 293 292 292 294 291 291 292 292 290 288 288 288 289 290 291 292 294 295
299 300 301 304 302 305 306 305 304 305 303 302 302 301 300 299 299 295 294 294 294 297 299 298 294 293 293 295 293 292 292 290 288 287 285 286 287 289 290 291 293 295 295
298 297 299 299 303 302 301 301 302 301 300 299 298 298 298 297 294 294 295 296 296 298 297 300 298 297 296 297 295 291 290 289 286 285 285 287 288 288 288 289 290 291 293
301 299 298 298 297 293 291 293 293 292 291 297 297 294 294 292 289 288 289 292 293 293 292 300 299 297 297 296 294 292 292 292 287 286 286 286 285 286 287 289 290 292 292
304 304 302 300 298 295 293 291 288 289 288 288 288 290 292 287 287 288 288 289 289 289 296 296 295 295 294 294 294 293 292 291 288 286 285 285 284 285 286 287 290 291 292
305 304 302 302 301 300 299 296 292 289 289 288 287 287 287 285 288 288 289 288 289 290 295 294 294 293 293 293 293 293 291 291 289 286 285 285 285 285 285 286 288 290 292
303 296 302 301 300 300 299 299 299 298 296 293 288 290 287 287 288 288 288 292 295 295 295 294 293 293 293 293 292 292 292 292 289 285 284 284 284 284 285 286 288 289 291
301 301 301 301 300 298 299 299 298 298 297 297 297 291 291 289 288 290 290 295 294 294 294 293 294 293 293 293 292 292 291 291 288 285 284 284 284 284 285 287 288 288 291
299 294 297 299 299 298 298 298 297 297 296 294 294 295 296 294 295 295 295 295 294 294 294 293 293 293 293 292 292 291 290 289 288 285 285 284 285 285 286 287 289 291 294
299 299 288 299 298 298 297 297 297 296 294 293 292 291 284 293 294 294 294 294 294 294 293 293 293 292 292 291 291 290 288 287 287 285 286 285 286 285 286 287 289 292 294
299 299 299 298 297 297 297 297 297 296 295 294 294 292 285 295 294 294 294 294 294 295 295 294 293 292 292 291 290 288 286 285 285 285 286 285 286 286 286 287 288 291 291
299 298 297 297 296 290 296 296 296 295 295 294 294 294 294 294 294 294 294 294 294 294 295 294 293 292 292 291 290 288 285 284 284 287 287 286 288 286 286 286 288 288 289
299 298 297 296 296 296 296 295 294 290 294 294 294 294 294 294 293 294 294 294 294 294 294 294 293 292 291 290 289 288 286 285 285 287 287 291 291 288 286 286 287 288 288
298 297 296 296 295 295 295 295 295 294 294 294 293 293 293 293 293 293 293 294 294 293 293 293 293 292 290 289 287 286 283 283 285 284 289 294 293 291 287 287 286 287 287
298 297 297 296 296 296 295 295 294 294 293 293 293 293 293 292 293 293 293 293 293 293 293 293 292 292 289 288 286 283 282 283 284 283 288 295 293 292 292 288 286 286 286
Wind_Speed
11 9 10 11 13 13 12 12 13 12 10 11 9 8 7 6 3 4 6 4 6 8 8 8 9 8 8 9 9 9 9 9 10 10 12 10 14 10 10 10 11 10 11
14 14 15 13 14 14 14 14 12 12 11 9 11 6 4 5 7 8 7 7 8 7 8 8 9 8 10 9 8 11 9 8 9 13 12 13 13 11 9 12 9 10 10
15 15 14 15 15 15 15 15 14 12 10 10 10 7 7 7 3 5 9 9 8 7 7 9 9 9 9 9 9 8 7 8 10 12 11 11 10 9 10 10 12 12 12
14 15 15 13 14 14 13 12 12 10 8 12 9 7 6 6 10 12 10 9 8 8 8 7 9 9 11 11 11 12 9 11 10 10 10 9 10 10 11 12 12 12 12
16 15 13 13 13 13 11 12 12 11 9 10 9 9 9 10 8 10 11 12 10 8 7 8 9 8 4 9 9 12 12 10 10 10 11 11 12 12 12 10 11 12 11
15 15 14 14 13 13 11 10 12 11 8 7 8 10 12 7 11 13 12 11 8 8 9 10 11 7 14 15 17 16 15 12 13 9 10 10 14 11 10 9 11 10 8
15 14 14 12 13 12 11 11 9 9 8 10 9 9 11 9 13 13 14 9 9 8 9 8 10 10 10 15 17 18 13 11 13 11 10 11 12 12 11 13 12 11 11
15 15 14 14 14 13 12 10 8 7 9 9 8 7 11 10 14 16 18 9 4 7 6 7 10 10 12 15 15 13 12 12 4 5 8 10 11 9 9 9 12 13 10
16 15 14 14 14 13 13 10 9 10 7 8 8 8 8 9 12 17 17 10 6 5 5 5 8 11 13 14 14 14 13 10 11 12 11 12 8 5 9 8 7 8 8
15 15 14 13 12 13 12 9 7 7 6 7 8 8 5 8 10 13 15 8 10 9 1 9 9 9 10 14 12 13 15 15 16 16 11 11 12 11 14 6 7 8 7
16 15 14 14 13 11 8 5 5 7 7 6 7 6 5 6 8 5 10 9 9 9 7 8 9 10 11 11 12 11 13 15 15 11 11 9 10 9 8 8 8 7 7
13 15 14 13 10 9 7 10 9 8 6 5 4 4 5 8 8 6 5 6 8 9 8 8 8 11 16 7 6 10 16 15 10 10 9 10 9 10 10 10 11 9 7
12 13 13 13 8 10 9 9 8 5 4 4 5 5 5 7 8 10 3 6 9 8 7 9 12 17 16 5 6 17 14 11 10 10 10 9 9 10 12 10 10 11 10
13 8 6 9 11 8 8 8 8 8 4 6 6 5 6 7 8 9 9 9 11 9 12 4 8 9 10 9 10 11 9 9 9 9 9 9 9 9 9 8 10 8 8
13 12 9 8 11 12 12 9 9 11 11 8 9 8 8 7 8 9 9 9 10 12 15 10 9 9 8 8 9 9 10 11 10 10 9 10 10 10 8 9 8 8 6
14 12 11 10 10 11 11 11 15 12 10 10 12 12 7 5 6 9 11 14 16 19 7 9 10 9 10 11 12 11 10 13 11 10 9 9 10 10 11 10 8 8 8
10 10 8 8 8 10 10 10 9 5 5 8 9 6 2 5 10 11 10 8 14 13 10 9 9 10 11 11 12 11 10 11 11 10 10 10 10 10 12 10 9 8 9
9 5 7 7 7 7 6 5 6 8 9 8 7 2 5 5 11 14 18 12 7 8 8 9 10 11 11 12 12 12 11 11 11 11 11 11 11 11 11 11 10 10 9
8 7 7 7 7 6 6 6 6 6 6 6 6 5 5 5 7 11 15 8 8 8 9 9 10 11 11 11 12 12 13 11 11 11 11 11 11 11 11 11 11 13 12
9 8 7 7 6 7 6 6 6 7 7 7 6 6 7 2 7 7 8 8 8 9 9 10 10 11 12 12 12 12 12 12 12 11 11 11 11 11 11 13 12 12 11
7 6 4 6 7 6 6 6 6 6 8 8 8 6 5 6 6 7 7 8 8 9 10 10 11 11 11 12 13 13 13 12 12 12 11 11 12 12 12 11 11 11 10
7 6 7 7 6 6 6 6 6 6 6 7 7 5 8 4 6 7 7 8 8 9 9 10 10 11 11 12 13 13 13 13 13 12 12 12 12 12 12 11 12 11 11
7 7 7 7 7 5 5 6 6 6 6 6 5 5 6 6 6 7 7 8 8 9 9 10 11 11 11 12 12 12 13 12 12 12 13 11 11 12 12 12 13 12 12
7 8 8 7 6 7 7 7 6 6 5 5 5 5 5 6 6 7 7 7 8 8 9 10 10 14 13 13 12 13 12 13 12 12 15 11 11 12 12 12 13 15 13
7 7 7 7 6 7 5 6 6 6 6 5 5 5 6 6 7 7 7 8 8 8 10 10 10 14 16 19 19 21 19 19 18 17 11 11 15 11 11 12 15 12 15
6 6 6 6 6 6 6 6 5 5 5 5 5 6 6 6 6 7 7 8 8 8 10 9 12 16 18 16 18 17 19 21 19 22 15 10 12 11 10 12 18 12 15
Wind_Direction
97 92 89 79 89 88 90 91 97 94 97 94 84 78 69 60 16 347 10 18 340 357 344 319 314 329 322 317 328 313 321 324 314 309 310 320 314 311 326 319 317 317 320
89 87 91 90 93 91 91 88 81 83 77 91 90 68 134 76 5 9 346 358 341 348 327 320 324 336 328 307 338 328 316 311 312 309 319 318 318 307 313 314 328 324 328
99 100 99 98 97 95 94 95 95 96 84 60 61 63 39 58 343 342 347 344 328 323 320 326 331 329 323 341 326 308 313 322 316 314 321 304 301 321 320 326 336 336 327
103 102 101 103 108 110 111 109 108 111 111 119 121 111 76 54 25 354 347 331 315 329 325 337 325 340 341 336 328 319 345 327 312 302 306 308 316 335 334 334 328 332 324
102 98 101 104 105 102 100 108 101 103 108 109 116 89 76 58 33 2 344 319 315 321 338 339 346 324 358 315 322 335 323 319 310 313 312 323 321 333 329 331 321 321 313
101 101 103 103 103 97 102 100 103 98 101 106 85 84 75 65 12 357 337 305 317 350 349 356 341 32 2 347 343 328 302 290 289 294 303 306 312 316 323 325 317 315 319
106 102 100 95 95 98 99 101 107 104 105 86 81 80 77 39 8 343 342 309 341 356 357 10 339 4 358 341 325 303 309 313 251 259 287 291 308 317 321 318 311 305 297
104 105 104 105 103 101 104 99 94 88 83 82 69 64 66 49 6 352 340 285 355 344 349 9 342 349 15 343 324 331 341 325 12 333 303 304 304 319 319 308 303 292 294
110 113 121 120 118 116 105 96 91 86 83 79 71 64 77 50 7 358 351 316 9 307 50 21 354 351 2 332 326 343 336 330 338 323 310 292 300 335 327 315 308 322 314
111 104 98 94 93 99 98 91 94 101 97 111 102 89 90 73 36 4 354 14 354 332 342 122 83 20 340 326 332 351 343 339 328 331 334 8 354 334 326 309 317 308 315
100 103 104 103 104 100 101 101 116 93 95 110 99 108 110 37 83 38 354 4 358 326 359 6 18 352 313 304 311 0 344 328 340 345 341 335 337 333 326 324 310 297 296
108 107 107 109 106 100 101 110 104 109 121 111 117 114 97 110 27 64 299 299 328 333 1 8 357 311 293 296 338 16 10 349 350 347 338 334 332 328 327 319 309 299 269
106 113 110 107 111 105 111 111 114 113 95 73 65 72 61 47 19 26 44 355 343 334 355 321 284 279 289 144 66 18 7 2 352 345 338 331 324 319 318 317 318 308 297
103 93 94 104 99 69 66 48 53 41 54 57 53 38 54 46 27 6 2 8 356 5 359 4 11 343 48 21 30 12 358 6 353 340 331 322 323 328 328 327 321 323 320
111 109 91 79 87 83 60 39 79 54 33 34 19 47 24 33 22 328 325 345 346 322 318 30 17 15 6 4 16 9 356 0 358 349 341 337 335 334 332 328 320 323 321
145 152 136 129 116 106 103 88 56 69 73 65 50 37 95 68 326 311 313 314 316 313 358 24 21 9 8 7 7 14 5 355 4 347 342 342 336 335 330 328 328 332 324
109 121 117 129 128 139 140 127 116 113 118 94 83 83 13 312 303 307 310 325 297 316 30 21 20 14 11 12 12 9 2 3 2 349 344 344 338 334 332 330 332 330 328
105 77 115 109 110 113 108 105 135 147 138 127 193 175 181 300 318 330 331 340 41 32 26 21 17 18 13 11 11 9 360 5 0 351 349 347 342 337 333 333 332 328 321
128 108 104 93 81 91 103 100 97 93 85 90 123 202 160 247 284 297 299 29 29 28 19 24 21 19 14 11 10 8 2 5 359 349 349 348 344 341 336 334 328 325 321
80 56 107 121 121 101 102 99 97 89 80 67 52 41 12 72 44 37 37 30 31 28 20 19 22 21 17 11 10 5 2 2 358 350 347 345 345 344 339 334 333 332 335
124 100 21 104 96 93 95 97 95 97 96 84 71 56 320 320 46 38 34 34 30 27 23 15 21 24 18 14 8 3 6 0 357 347 342 344 345 346 341 335 333 333 339
136 119 101 100 112 114 106 105 102 99 101 111 119 96 279 57 44 42 36 33 32 31 28 17 22 26 19 17 9 4 5 0 351 342 341 339 347 347 344 342 342 343 345
111 112 103 94 89 139 125 107 104 101 97 87 76 66 57 52 50 37 37 34 33 33 30 27 23 24 21 21 16 11 5 359 338 335 336 330 349 348 349 346 346 347 346
123 124 134 140 123 110 96 84 85 59 92 91 80 66 59 55 47 49 33 33 34 34 32 31 25 30 24 23 16 11 7 352 332 339 330 327 0 346 353 352 351 353 350
122 111 122 133 121 105 125 108 104 100 91 76 68 59 51 51 46 40 35 25 30 32 34 32 22 31 25 25 18 9 356 346 340 338 331 339 2 2 4 359 357 356 2
117 119 117 121 117 116 112 104 91 89 90 81 70 63 49 33 46 33 38 29 24 30 31 36 21 34 25 23 17 4 354 349 346 341 327 6 12 355 11 15 6 4 6